Simultaneous Nadir Overpasses (SNOs) Predictions

Prediction of SNOs between METOP-B and NPP Satellite Orbit:

Table of predicted SNOs for the next 14.0 days since TLE Epoch: 10/12/2019
Index Date (METOP-B) Time (METOP-B) Lat,Lon (METOP-B) SZA (METOP-B ) Date (NPP) Time (NPP) Lat,Lon (NPP) SZA (NPP ) Distance(km) Time Diff (sec)
1 10/17/2019 18:38:05 -73.59, 73.92 97.13 10/17/2019 18:36:58 -73.56, 70.99 97.10 92.39 67
2 10/17/2019 19:28:49 73.36,-119.27 82.66 10/17/2019 19:27:40 73.36,-121.26 82.72 63.49 69
3 10/17/2019 20:19:33 -73.27, 47.86 97.42 10/17/2019 20:18:22 -73.26, 46.27 97.38 50.64 71
4 10/17/2019 21:10:17 73.03,-145.32 82.37 10/17/2019 21:09:04 73.07,-145.99 82.43 21.95 73
5 10/17/2019 22:01:00 -73.00, 21.92 97.66 10/17/2019 21:59:46 -72.97, 21.54 97.67 12.80 74
6 10/17/2019 22:51:42 72.86,-171.03 82.23 10/17/2019 22:50:30 72.87,-170.95 82.25 3.06 72
7 10/17/2019 23:42:24 -72.87, -3.68 97.75 10/17/2019 23:41:14 -72.87, -3.63 97.74 1.47 70
8 10/18/2019 00:33:03 72.89, 163.69 82.28 10/18/2019 00:32:00 72.88, 163.67 82.28 1.40 63
9 10/18/2019 01:23:45 -72.90, -28.96 97.70 10/18/2019 01:22:44 -72.88, -29.02 97.71 3.13 61
10 10/18/2019 02:14:25 72.87, 138.30 82.29 10/18/2019 02:13:30 72.88, 138.28 82.31 2.10 55
11 10/18/2019 03:05:07 -72.88, -54.35 97.69 10/18/2019 03:04:14 -72.89, -54.41 97.68 2.18 53
12 10/18/2019 03:55:47 72.84, 112.92 82.29 10/18/2019 03:54:59 72.84, 113.00 82.29 2.78 48
13 10/18/2019 04:46:29 -72.86, -79.73 97.69 10/18/2019 04:45:43 -72.84, -79.69 97.70 2.21 46
14 10/18/2019 05:37:08 72.87, 87.64 82.34 10/18/2019 05:36:29 72.85, 87.61 82.32 3.07 39
15 10/18/2019 06:27:51 -72.83,-105.12 97.68 10/18/2019 06:27:13 -72.85,-105.08 97.67 2.01 38
16 10/18/2019 07:18:30 72.85, 62.25 82.35 10/18/2019 07:17:59 72.85, 62.22 82.35 0.81 31
17 10/18/2019 08:09:12 -72.86,-130.40 97.63 10/18/2019 08:08:43 -72.85,-130.46 97.64 2.34 29
18 10/18/2019 08:59:52 72.83, 36.86 82.35 10/18/2019 08:59:29 72.86, 36.84 82.39 3.47 23
19 10/18/2019 09:50:34 -72.84,-155.79 97.63 10/18/2019 09:50:13 -72.86,-155.85 97.60 3.01 21
20 10/18/2019 10:41:14 72.80, 11.48 82.36 10/18/2019 10:40:58 72.81, 11.56 82.37 2.80 16
21 10/18/2019 11:31:56 -72.82, 178.83 97.62 10/18/2019 11:31:42 -72.82, 178.87 97.63 1.36 14
22 10/18/2019 12:22:35 72.83, -13.81 82.41 10/18/2019 12:22:28 72.82, -13.83 82.40 1.78 7
23 10/18/2019 13:13:18 -72.80, 153.44 97.62 10/18/2019 13:13:12 -72.82, 153.48 97.59 3.11 6
24 10/18/2019 14:03:57 72.81, -39.19 82.41 10/18/2019 14:03:58 72.83, -39.22 82.43 1.83 1
25 10/18/2019 14:54:39 -72.82, 128.16 97.57 10/18/2019 14:54:42 -72.83, 128.09 97.56 2.22 3
26 10/18/2019 15:45:19 72.79, -64.58 82.42 10/18/2019 15:45:27 72.78, -64.50 82.41 2.72 8
27 10/18/2019 16:36:01 -72.80, 102.77 97.56 10/18/2019 16:36:11 -72.78, 102.81 97.58 2.45 10
28 10/18/2019 17:26:41 72.77, -89.96 82.42 10/18/2019 17:26:57 72.79, -89.89 82.44 3.45 16
29 10/18/2019 18:17:23 -72.78, 77.39 97.56 10/18/2019 18:17:41 -72.79, 77.42 97.55 1.60 18
30 10/18/2019 19:08:02 72.79,-115.25 82.47 10/18/2019 19:08:27 72.79,-115.27 82.47 0.96 25
31 10/18/2019 19:58:44 -72.81, 52.11 97.51 10/18/2019 19:59:11 -72.80, 52.04 97.52 2.69 27
32 10/18/2019 20:49:24 72.77,-140.63 82.48 10/18/2019 20:49:57 72.80,-140.66 82.50 3.18 33
33 10/18/2019 21:40:06 -72.79, 26.72 97.50 10/18/2019 21:40:41 -72.80, 26.65 97.49 2.89 35
34 10/18/2019 22:30:46 72.75,-166.02 82.48 10/18/2019 22:31:26 72.75,-165.94 82.48 2.53 40
35 10/18/2019 23:21:28 -72.76, 1.33 97.50 10/18/2019 23:22:10 -72.76, 1.37 97.51 1.33 42
36 10/19/2019 00:12:07 72.78, 168.70 82.53 10/19/2019 00:12:56 72.76, 168.67 82.51 2.18 49
37 10/19/2019 01:02:50 -72.74, -24.05 97.49 10/19/2019 01:03:40 -72.76, -24.02 97.48 2.66 50
38 10/19/2019 01:53:29 72.76, 143.31 82.54 10/19/2019 01:54:26 72.77, 143.28 82.55 1.65 57
39 10/19/2019 02:44:11 -72.77, -49.33 97.44 10/19/2019 02:45:10 -72.77, -49.41 97.44 2.40 59
40 10/19/2019 03:34:51 72.73, 117.93 82.54 10/19/2019 03:35:55 72.72, 118.00 82.52 2.66 64
41 10/19/2019 04:25:33 -72.75, -74.72 97.44 10/19/2019 04:26:39 -72.72, -74.69 97.47 2.70 66
42 10/19/2019 05:16:13 72.71, 92.54 82.55 10/19/2019 05:17:25 72.73, 92.61 82.56 3.06 72
43 10/19/2019 06:06:55 -72.72,-100.10 97.43 10/19/2019 06:08:09 -72.73,-100.08 97.43 1.18 74
44 10/19/2019 06:57:39 72.48, 66.74 82.36 10/19/2019 06:58:51 72.53, 67.64 82.38 30.45 72
45 10/19/2019 07:48:23 -72.40,-126.11 97.72 10/19/2019 07:49:34 -72.48,-124.95 97.67 40.04 71
46 10/19/2019 08:39:07 72.15, 40.76 82.07 10/19/2019 08:40:15 72.23, 42.86 82.09 72.04 68
47 10/19/2019 09:29:50 -72.12,-151.99 97.96 10/19/2019 09:30:58 -72.18,-149.73 97.95 77.15 68




NCC Satellite Simultaneous Nadir Overpasses (SNOs) Prediction Service
